| time (UTC) | temp C | wind direction | speed KPH | gust KPH | rain 1hr cm | rain 24hr cm | rain mn cm | humidity % | barometer mb |
| 20260506121550 | -17 | 0.0 | 0.0 | 0.00 | 0.00 | 0.00 | 1012.2 | ||
| 20260506120023 | -17 | 0.0 | 0.0 | 0.00 | 0.00 | 0.00 | 1012.0 | ||
| 20260506114517 | -17 | 0.0 | 0.0 | 0.00 | 0.00 | 0.00 | 1011.7 | ||
| 20260506073005 | 16 | 303 | 0.0 | 6.4 | 0.00 | 0.00 | 0.00 | 76 | 1009.4 |
| 20260506071504 | 16 | 316 | 0.0 | 8.0 | 0.00 | 0.00 | 0.00 | 76 | 1009.2 |
| 20260506061556 | 17 | 316 | 0.0 | 4.8 | 0.00 | 0.00 | 0.00 | 76 | 1009.0 |
| 20260506024503 | 23 | 275 | 0.0 | 3.2 | 0.00 | 0.00 | 0.00 | 71 | 1006.7 |
| 20260506023105 | 23 | 332 | 0.0 | 3.2 | 0.00 | 0.00 | 0.00 | 70 | 1006.0 |
| 20260506021604 | 23 | 96 | 0.0 | 4.8 | 0.00 | 0.00 | 0.00 | 70 | 1005.6 |
| 20260506020059 | 24 | 315 | 0.0 | 11.3 | 0.00 | 0.00 | 0.00 | 71 | 1005.4 |
| 20260506014557 | 25 | 245 | 0.0 | 0.0 | 0.00 | 0.00 | 0.00 | 71 | 1005.1 |
| 20260506003031 | 27 | 129 | 0.0 | 0.0 | 0.00 | 0.00 | 0.00 | 74 | 1004.6 |
| 20260506001531 | 27 | 147 | 1.6 | 9.7 | 0.00 | 0.00 | 0.00 | 71 | 1004.4 |
| 20260506000029 | 28 | 202 | 1.6 | 14.5 | 0.00 | 0.00 | 0.00 | 70 | 1003.8 |
| 20260505234529 | 28 | 212 | 6.4 | 16.1 | 0.00 | 0.00 | 0.00 | 69 | 1003.5 |
| 20260505214544 | 32 | 89 | 0.0 | 11.3 | 0.00 | 0.00 | 0.00 | 58 | 1003.3 |
| 20260505213042 | 32 | 163 | 0.0 | 16.1 | 0.00 | 0.00 | 0.00 | 58 | 1003.4 |
| 20260505211541 | 32 | 165 | 4.8 | 17.7 | 0.00 | 0.00 | 0.00 | 57 | 1003.6 |
| 20260505210044 | 32 | 120 | 3.2 | 14.5 | 0.00 | 0.00 | 0.00 | 56 | 1003.6 |
| 20260505204536 | 32 | 99 | 3.2 | 12.9 | 0.00 | 0.00 | 0.00 | 56 | 1004.0 |
| 20260505203037 | 32 | 219 | 0.0 | 17.7 | 0.00 | 0.00 | 0.00 | 56 | 1004.0 |
| 20260505201547 | 31 | 134 | 4.8 | 11.3 | 0.00 | 0.00 | 0.00 | 57 | 1004.1 |
| 20260505200033 | 31 | 98 | 1.6 | 12.9 | 0.00 | 0.00 | 0.00 | 58 | 1004.2 |
| 20260505194527 | 31 | 229 | 0.0 | 12.9 | 0.00 | 0.00 | 0.00 | 60 | 1004.3 |
| 20260505183114 | 29 | 131 | 1.6 | 11.3 | 0.00 | 0.00 | 0.00 | 62 | 1004.8 |
| 20260505181553 | 29 | 175 | 1.6 | 14.5 | 0.00 | 0.00 | 0.00 | 63 | 1004.8 |
| 20260505180050 | 28 | 127 | 0.0 | 12.9 | 0.00 | 0.00 | 0.00 | 65 | 1004.9 |
| 20260505174549 | 28 | 113 | 3.2 | 11.3 | 0.00 | 0.00 | 0.00 | 63 | 1005.0 |
| 20260505173052 | 28 | 182 | 1.6 | 12.9 | 0.00 | 0.00 | 0.00 | 65 | 1004.8 |
| 20260505171555 | 28 | 236 | 3.2 | 17.7 | 0.00 | 0.00 | 0.00 | 64 | 1004.9 |
| 20260505170044 | 28 | 97 | 0.0 | 12.9 | 0.00 | 0.00 | 0.00 | 67 | 1005.1 |
| 20260505164539 | 27 | 58 | 0.0 | 17.7 | 0.00 | 0.00 | 0.00 | 68 | 1005.1 |
| 20260505163037 | 27 | 41 | 0.0 | 16.1 | 0.00 | 0.00 | 0.00 | 67 | 1004.8 |
| 20260505161536 | 27 | 205 | 0.0 | 20.9 | 0.00 | 0.00 | 0.00 | 70 | 1004.7 |
| 20260505153028 | 26 | 100 | 1.6 | 14.5 | 0.00 | 0.00 | 0.00 | 74 | 1004.7 |
| 20260505151532 | 25 | 232 | 4.8 | 17.7 | 0.00 | 0.00 | 0.00 | 76 | 1004.8 |
| 20260505123007 | -17 | 0.0 | 0.0 | 0.00 | 0.00 | 0.00 | 1004.2 |